Terug naar catalogus

COSMOS 2585

ActiefNavigatiePO
NORAD 63288·PAYLOAD·🇷🇺 Russia

Gelanceerd Mar 16, 2025 vanaf Plesetsk Cosmodrome

Loading…

Volgende Passages (komende 24 uur)

TLE

VersSource: Space-Track

Epoch: Sep 14, 2026, 19:32 UTC

1 63288U 25054A   26257.81440610  .00000030  00000-0  14681-3 0  9995
2 63288  82.4975  22.8397 0024517 197.5862 162.4371 12.42870873 67999

Volg COSMOS 2585 in realtime met AllMySat

Download on the App Store